Location: Observatoire
(46.1952°N, 5.3391°E)
Time: 02:11:46
(UTC+01:00)

Explorer 7 - Pass Details

Date: 22 February 2026
Orbit: 430 x 541 km, 50.2° (Epoch: 10 March)

Event Time Altitude Azimuth Distance (km) Brightness Sun altitude
Rises 19:02:18 0° 293° (WNW) 2,495 11.4 -9.0°
Reaches altitude 10° 19:04:25 10° 291° (WNW) 1,636 10.4 -9.3°
Maximum altitude 19:08:06 72° 208° (SSW) 514 6.8 -10.0°
Drops below altitude 10° 19:11:56 10° 123° (ESE) 1,699 8.8 -10.6°
Enters shadow 19:12:00 10° 123° (ESE) 1,723 8.9 -10.6°
Sets 19:14:11 0° 122° (ESE) 2,602 - -11.0°
